Location: Unspecified
(41.1637°N, 24.2901°E)
Time: 23:39:45
(UTC+02:00)

X-37B - Pass Details

Date: 14 March 2021
Orbit: 380 x 394 km, 45.0° (Epoch: 07 April)

Event Time Altitude Azimuth Distance (km) Brightness Sun altitude
Rises 18:58:43 0° 263° (W) 2,267 5.8 -17.7°
Reaches altitude 10° 19:00:49 10° 268° (W) 1,416 4.6 -18.1°
Maximum altitude 19:03:56 53° 346° (NNW) 485 1.1 -18.6°
Enters shadow 19:04:29 46° 26° (NNE) 538 1.1 -18.7°
